Retour au catalogue

QZS-3

ActifNavigationGEO
NORAD 42917·PAYLOAD·🇯🇵 Japan

Lancé Aug 19, 2017 depuis Tanegashima Space Center

Loading…

TLE

FraisSource: CelesTrak SupGP

Époque: Sep 13, 2026, 00:00 UTC

1 42917C 17048A   26256.00000000 -.00000258  00000+0  00000+0 0  2564
2 42917   0.0519 151.8360 0001690 358.0963 329.1005  1.00275037    10

Suivez QZS-3 en temps réel avec AllMySat

Download on the App Store